Location: Arrien
(43.3167°N, 0.1500°W)
Time: 05:04:14
(UTC+00:00)

Cosmos 1656 - Pass Details

Date: 15 October 2021
Orbit: 799 x 848 km, 71.1° (Epoch: 02 December)

Event Time Altitude Azimuth Distance (km) Brightness Sun altitude
Rises 17:43:20 0° 207° (SSW) 3,347 7.3 -5.5°
Reaches altitude 10° 17:45:46 10° 209° (SSW) 2,410 6.6 -5.9°
Maximum altitude 17:51:17 76° 295° (WNW) 841 3.9 -6.9°
Drops below altitude 10° 17:56:46 10° 22° (NNE) 2,396 5.8 -7.9°
Sets 17:59:12 0° 24° (NNE) 3,326 6.5 -8.4°
